Location: Unspecified
(0.0000°N, 0.0000°E)
Time: 06:06:22
(UTC+00:00)

Vanguard 3 - Pass Details

Date: 11 December 2017
Orbit: 508 x 3264 km, 33.3° (Epoch: 18 July)

Event Time Altitude Azimuth Distance (km) Brightness Sun altitude
Rises 19:32:16 0° 321° (NW) 3,777 10.8 -22.6°
Reaches altitude 10° 19:34:33 10° 327° (NNW) 3,092 10.2 -23.1°
Maximum altitude 19:42:15 49° 41° (NE) 2,113 8.8 -24.9°
Enters shadow 19:47:06 34° 90° (E) 2,980 9.5 -26.0°
Exits shadow 20:00:55 - 116° (ESE) 6,658 11.5 -29.0°
Sets 20:00:57 0° 116° (ESE) 6,668 11.5 -29.1°
